This demonstration page uses our WeatherBlox Daily Observations layout. Learn more.

38.88101, -77.10428

Hourly Observations for March 5, 2016

Temp ( °F °C ) Dew Point ( °F °C ) Humidity (%) Winds ( mph kmh ) Pressure ( in mb ) Visibility ( mi km ) Precip ( " mm )
12:52 am 00:52 Mostly Cloudy 39 4 25 -4 56 56 NNW 6 9 30.18 1022 10 16.09344 0 0
1:52 am 01:52 Cloudy 37 3 25 -4 60 60 NNW 9 15 30.18 1022 10 16.09344 0 0
2:52 am 02:52 Cloudy 37 3 21 -6 52 52 NW 12 19 30.18 1022 10 16.09344 0 0
3:52 am 03:52 Cloudy 39 4 21 -6 48 48 NW 9 15 30.21 1023 10 16.09344 0 0
4:52 am 04:52 Cloudy 36 2 25 -4 65 65 E 9 15 30.21 1023 10 16.09344 0 0
5:52 am 05:52 Cloudy 36 2 21 -6 56 56 ENE 9 15 30.21 1023 10 16.09344 0 0
6:52 am 06:52 Cloudy 36 2 19 -7 52 52 ENE 8 13 30.24 1024 10 16.09344 0 0
7:52 am 07:52 Cloudy 36 2 21 -6 56 56 ENE 8 13 30.27 1025 10 16.09344 0 0
8:52 am 08:52 Cloudy 36 2 21 -6 56 56 ENE 6 9 30.27 1025 10 16.09344 0 0
9:52 am 09:52 Mostly Cloudy 37 3 21 -6 52 52 ENE 6 9 30.24 1024 10 16.09344 0 0
10:52 am 10:52 Cloudy 37 3 21 -6 52 52 Calm 30.24 1024 10 16.09344 0 0
11:52 am 11:52 Cloudy 39 4 21 -6 48 48 Calm 30.24 1024 10 16.09344 0 0
12:52 pm 12:52 Cloudy 41 5 23 -5 49 49 SSE 5 7 30.21 1023 10 16.09344 0 0
1:21 pm 13:21 Cloudy 43 6 25 -4 49 49 SSE 8 13 30.18 1022 10 16.09344 0 0
1:52 pm 13:52 Mostly Cloudy 43 6 25 -4 49 49 SSE 10 17 30.18 1022 10 16.09344 0 0
2:52 pm 14:52 Cloudy 45 7 27 -3 49 49 S 15 24 30.15 1021 10 16.09344 0 0
3:52 pm 15:52 Cloudy 45 7 27 -3 49 49 S 10 17 30.15 1021 10 16.09344 0 0
4:52 pm 16:52 Cloudy 43 6 27 -3 53 53 SSW 7 11 30.15 1021 10 16.09344 0 0
5:52 pm 17:52 Mostly Cloudy 43 6 27 -3 53 53 S 10 17 30.15 1021 10 16.09344 0 0
6:52 pm 18:52 Mostly Clear 41 5 28 -2 61 61 S 8 13 30.18 1022 10 16.09344 0 0
7:52 pm 19:52 Partly Cloudy 39 4 27 -3 61 61 SSE 7 11 30.18 1022 10 16.09344 0 0
8:52 pm 20:52 Mostly Clear 38 3.3 27 -2.8 65 65 ESE 5 7 30.18 1022 10 16.09344 0 0
9:52 pm 21:52 Mostly Cloudy 37 2.8 27 -2.8 67 67 SSE 5 7 30.21 1023 10 16.09344 0 0
10:52 pm 22:52 Cloudy 37 2.8 27 -2.8 67 67 SSE 7 11 30.21 1023 10 16.09344 0 0
11:52 pm 23:52 Cloudy 37 2.8 28 -2.2 70 70 S 5 7 30.21 1023 10 16.09344 0 0

Powered by AerisWeather